Time,TemperatureF,DewpointF,PressureIn,WindDirection,WindDirectionDegrees,WindSpeedMPH,WindSpeedGustMPH,Humidity,HourlyPrecipIn,Conditions,Clouds,dailyrainin,SoftwareType,DateUTC
2013-02-13 00:02:00,33.0,24.0,-100.00,South,175,2.0,6.0,69,-99.99,,,-99.99,,2013-02-13 05:02:00,
2013-02-13 00:12:00,32.0,24.0,-100.00,SW,235,2.0,5.0,70,-99.99,,,-99.99,,2013-02-13 05:12:00,
2013-02-13 00:22:00,31.0,23.0,-100.00,SSW,195,1.0,5.0,72,-99.99,,,-99.99,,2013-02-13 05:22:00,
2013-02-13 00:32:00,31.0,23.0,-100.00,South,170,2.0,5.0,73,-99.99,,,-99.99,,2013-02-13 05:32:00,
2013-02-13 00:42:00,31.0,23.0,-100.00,NW,305,2.0,5.0,72,-99.99,,,-99.99,,2013-02-13 05:42:00,
2013-02-13 00:52:00,31.0,23.0,-100.00,NW,310,2.0,5.0,72,-99.99,,,-99.99,,2013-02-13 05:52:00,
2013-02-13 01:02:00,31.0,23.0,-100.00,SW,215,2.0,3.0,74,-99.99,,,-99.99,,2013-02-13 06:02:00,
2013-02-13 01:11:00,30.0,23.0,-100.00,West,260,1.0,5.0,73,-99.99,,,-99.99,,2013-02-13 06:11:00,
2013-02-13 01:22:00,30.0,23.0,-100.00,SW,215,2.0,5.0,75,-99.99,,,-99.99,,2013-02-13 06:22:00,
2013-02-13 01:32:00,30.0,23.0,-100.00,WNW,290,2.0,3.0,75,-99.99,,,-99.99,,2013-02-13 06:32:00,
2013-02-13 01:42:00,29.0,23.0,-100.00,SW,235,1.0,3.0,76,-99.99,,,-99.99,,2013-02-13 06:42:00,
2013-02-13 01:52:00,29.0,22.0,-100.00,South,180,0.0,2.0,76,-99.99,,,-99.99,,2013-02-13 06:52:00,
2013-02-13 02:02:00,28.0,22.0,-100.00,SE,130,0.0,1.0,77,-99.99,,,-99.99,,2013-02-13 07:02:00,
2013-02-13 02:11:00,28.0,22.0,-100.00,SSW,200,2.0,2.0,79,-99.99,,,-99.99,,2013-02-13 07:11:00,
2013-02-13 02:22:00,28.0,23.0,-100.00,SSW,205,2.0,2.0,81,-99.99,,,-99.99,,2013-02-13 07:22:00,
2013-02-13 02:32:00,27.0,22.0,-100.00,SSW,195,2.0,2.0,81,-99.99,,,-99.99,,2013-02-13 07:32:00,
2013-02-13 02:42:00,27.0,22.0,-100.00,SW,220,2.0,3.0,81,-99.99,,,-99.99,,2013-02-13 07:42:00,
2013-02-13 02:51:00,28.0,23.0,-100.00,South,190,2.0,3.0,81,-99.99,,,-99.99,,2013-02-13 07:51:00,
2013-02-13 03:01:00,28.0,23.0,-100.00,West,260,1.0,7.0,80,-99.99,,,-99.99,,2013-02-13 08:01:00,
2013-02-13 03:11:00,29.0,23.0,-100.00,West,260,3.0,7.0,79,-99.99,,,-99.99,,2013-02-13 08:11:00,
2013-02-13 03:21:00,29.0,23.0,-100.00,WNW,285,2.0,6.0,78,-99.99,,,-99.99,,2013-02-13 08:21:00,
2013-02-13 03:32:00,30.0,23.0,-100.00,WNW,295,1.0,8.0,76,-99.99,,,-99.99,,2013-02-13 08:32:00,
2013-02-13 03:43:00,30.0,23.0,-100.00,West,280,2.0,9.0,75,-99.99,,,-99.99,,2013-02-13 08:43:00,
2013-02-13 03:52:00,30.0,23.0,-100.00,SSW,210,2.0,7.0,75,-99.99,,,-99.99,,2013-02-13 08:52:00,
2013-02-13 04:02:00,30.0,22.0,-100.00,SW,225,2.0,7.0,73,-99.99,,,-99.99,,2013-02-13 09:02:00,
2013-02-13 04:11:00,30.0,22.0,-100.00,WSW,245,2.0,8.0,72,-99.99,,,-99.99,,2013-02-13 09:11:00,
2013-02-13 04:21:00,30.0,22.0,-100.00,SSW,210,3.0,8.0,70,-99.99,,,-99.99,,2013-02-13 09:21:00,
2013-02-13 04:30:00,29.0,22.0,-100.00,SSW,205,2.0,5.0,72,-99.99,,,-99.99,,2013-02-13 09:30:00,
2013-02-13 04:32:00,30.0,21.0,-100.00,West,265,2.0,7.0,70,-99.99,,,-99.99,,2013-02-13 09:32:00,
2013-02-13 04:42:00,30.0,22.0,-100.00,SSW,210,3.0,7.0,71,-99.99,,,-99.99,,2013-02-13 09:42:00,
2013-02-13 04:52:00,30.0,21.0,-100.00,NE,45,2.0,7.0,70,-99.99,,,-99.99,,2013-02-13 09:52:00,
2013-02-13 05:01:00,30.0,21.0,-100.00,NE,45,2.0,7.0,70,-99.99,,,-99.99,,2013-02-13 10:01:00,
2013-02-13 05:11:00,29.0,22.0,-100.00,SSW,205,2.0,5.0,72,-99.99,,,-99.99,,2013-02-13 10:11:00,
2013-02-13 05:22:00,29.0,22.0,-100.00,SSW,205,2.0,5.0,72,-99.99,,,-99.99,,2013-02-13 10:22:00,
2013-02-13 05:42:00,29.0,22.0,-100.00,South,175,0.0,2.0,74,-99.99,,,-99.99,,2013-02-13 10:42:00,
2013-02-13 05:52:00,29.0,22.0,-100.00,South,175,0.0,2.0,74,-99.99,,,-99.99,,2013-02-13 10:52:00,
2013-02-13 06:01:00,28.0,22.0,-100.00,South,190,2.0,5.0,78,-99.99,,,-99.99,,2013-02-13 11:01:00,
2013-02-13 06:11:00,28.0,22.0,-100.00,SW,220,1.0,5.0,78,-99.99,,,-99.99,,2013-02-13 11:11:00,
2013-02-13 06:22:00,27.0,22.0,-100.00,SSE,160,1.0,2.0,78,-99.99,,,-99.99,,2013-02-13 11:22:00,
2013-02-13 06:32:00,27.0,22.0,-100.00,South,175,2.0,5.0,80,-99.99,,,-99.99,,2013-02-13 11:32:00,
2013-02-13 06:42:00,27.0,22.0,-100.00,SSE,160,1.0,5.0,81,-99.99,,,-99.99,,2013-02-13 11:42:00,
2013-02-13 06:52:00,27.0,22.0,-100.00,South,170,1.0,3.0,81,-99.99,,,-99.99,,2013-02-13 11:52:00,
2013-02-13 07:02:00,26.0,22.0,-100.00,SSE,165,1.0,2.0,82,-99.99,,,-99.99,,2013-02-13 12:02:00,
2013-02-13 07:11:00,26.0,22.0,-100.00,South,185,1.0,6.0,83,-99.99,,,-99.99,,2013-02-13 12:11:00,
2013-02-13 07:22:00,26.0,22.0,-100.00,SSW,195,1.0,3.0,84,-99.99,,,-99.99,,2013-02-13 12:22:00,
2013-02-13 07:32:00,26.0,22.0,-100.00,South,185,1.0,5.0,84,-99.99,,,-99.99,,2013-02-13 12:32:00,
2013-02-13 07:42:00,26.0,22.0,-100.00,SE,140,1.0,6.0,83,-99.99,,,-99.99,,2013-02-13 12:42:00,
2013-02-13 07:52:00,26.0,22.0,-100.00,SSE,160,1.0,3.0,84,-99.99,,,-99.99,,2013-02-13 12:52:00,
2013-02-13 08:02:00,26.0,22.0,-100.00,SSE,150,1.0,2.0,84,-99.99,,,-99.99,,2013-02-13 13:02:00,
2013-02-13 08:11:00,26.0,22.0,-100.00,SSE,160,2.0,2.0,84,-99.99,,,-99.99,,2013-02-13 13:11:00,
2013-02-13 08:21:00,26.0,22.0,-100.00,NNW,345,1.0,2.0,85,-99.99,,,-99.99,,2013-02-13 13:21:00,
2013-02-13 08:32:00,26.0,22.0,-100.00,South,185,1.0,3.0,84,-99.99,,,-99.99,,2013-02-13 13:32:00,
2013-02-13 08:42:00,27.0,23.0,-100.00,West,275,1.0,3.0,85,-99.99,,,-99.99,,2013-02-13 13:42:00,
2013-02-13 08:51:00,28.0,23.0,-100.00,South,190,1.0,3.0,83,-99.99,,,-99.99,,2013-02-13 13:51:00,
2013-02-13 09:01:00,29.0,24.0,-100.00,NW,305,2.0,5.0,79,-99.99,,,-99.99,,2013-02-13 14:01:00,
2013-02-13 09:11:00,30.0,24.0,-100.00,NW,305,2.0,5.0,77,-99.99,,,-99.99,,2013-02-13 14:11:00,
2013-02-13 09:22:00,31.0,23.0,-100.00,WNW,300,5.0,8.0,71,-99.99,,,-99.99,,2013-02-13 14:22:00,
2013-02-13 09:32:00,32.0,23.0,-100.00,West,280,2.0,7.0,68,-99.99,,,-99.99,,2013-02-13 14:32:00,
2013-02-13 09:42:00,33.0,23.0,-100.00,WNW,300,2.0,6.0,67,-99.99,,,-99.99,,2013-02-13 14:42:00,
2013-02-13 09:52:00,34.0,24.0,-100.00,NW,310,5.0,7.0,66,-99.99,,,-99.99,,2013-02-13 14:52:00,
2013-02-13 10:02:00,35.0,23.0,-100.00,WSW,255,5.0,12.0,60,-99.99,,,-99.99,,2013-02-13 15:02:00,
2013-02-13 10:11:00,36.0,22.0,-100.00,NW,305,3.0,9.0,58,-99.99,,,-99.99,,2013-02-13 15:11:00,
2013-02-13 10:21:00,36.0,21.0,-100.00,WNW,300,8.0,13.0,55,-99.99,,,-99.99,,2013-02-13 15:21:00,
2013-02-13 10:30:00,38.0,22.0,-100.00,WNW,285,5.0,10.0,53,-99.99,,,-99.99,,2013-02-13 15:30:00,
2013-02-13 10:32:00,36.0,22.0,-100.00,NW,310,6.0,12.0,55,-99.99,,,-99.99,,2013-02-13 15:32:00,
2013-02-13 11:00:00,38.0,21.0,-100.00,WNW,300,2.0,9.0,51,-99.99,,,-99.99,,2013-02-13 16:00:00,
2013-02-13 11:11:00,38.0,22.0,-100.00,WNW,285,5.0,10.0,53,-99.99,,,-99.99,,2013-02-13 16:11:00,
2013-02-13 11:21:00,38.0,22.0,-100.00,WNW,285,5.0,10.0,53,-99.99,,,-99.99,,2013-02-13 16:21:00,
2013-02-13 11:42:00,38.0,21.0,-100.00,WNW,300,2.0,9.0,51,-99.99,,,-99.99,,2013-02-13 16:42:00,
2013-02-13 11:52:00,38.0,21.0,-100.00,WNW,300,2.0,9.0,51,-99.99,,,-99.99,,2013-02-13 16:52:00,
2013-02-13 12:11:00,39.0,22.0,-100.00,WNW,295,6.0,12.0,50,-99.99,,,-99.99,,2013-02-13 17:11:00,
2013-02-13 12:21:00,39.0,21.0,-100.00,West,265,3.0,10.0,49,-99.99,,,-99.99,,2013-02-13 17:21:00,
2013-02-13 12:32:00,39.0,22.0,-100.00,WNW,300,7.0,10.0,49,-99.99,,,-99.99,,2013-02-13 17:32:00,
2013-02-13 12:42:00,40.0,23.0,-100.00,SE,125,1.0,8.0,51,-99.99,,,-99.99,,2013-02-13 17:42:00,
2013-02-13 12:52:00,39.0,22.0,-100.00,WNW,300,2.0,8.0,50,-99.99,,,-99.99,,2013-02-13 17:52:00,
2013-02-13 13:02:00,39.0,21.0,-100.00,NW,315,3.0,8.0,49,-99.99,,,-99.99,,2013-02-13 18:02:00,
2013-02-13 13:11:00,40.0,22.0,-100.00,NE,35,1.0,6.0,48,-99.99,,,-99.99,,2013-02-13 18:11:00,
2013-02-13 13:20:00,40.0,22.0,-100.00,NW,305,3.0,8.0,48,-99.99,,,-99.99,,2013-02-13 18:20:00,
2013-02-13 13:23:00,40.0,22.0,-100.00,NW,305,6.0,10.0,49,-99.99,,,-99.99,,2013-02-13 18:23:00,
2013-02-13 13:32:00,40.0,22.0,-100.00,NW,305,6.0,10.0,49,-99.99,,,-99.99,,2013-02-13 18:32:00,
2013-02-13 13:42:00,41.0,21.0,-100.00,NW,320,6.0,10.0,46,-99.99,,,-99.99,,2013-02-13 18:42:00,
2013-02-13 13:52:00,40.0,22.0,-100.00,SW,230,3.0,8.0,49,-99.99,,,-99.99,,2013-02-13 18:52:00,
2013-02-13 14:01:00,40.0,22.0,-100.00,NW,305,3.0,8.0,48,-99.99,,,-99.99,,2013-02-13 19:01:00,
2013-02-13 14:11:00,40.0,22.0,-100.00,NW,305,3.0,8.0,48,-99.99,,,-99.99,,2013-02-13 19:11:00,
2013-02-13 18:22:00,34.0,20.0,-100.00,SSE,165,2.0,2.0,58,-99.99,,,-99.99,,2013-02-13 23:22:00,
2013-02-13 18:32:00,33.0,21.0,-100.00,SSE,165,2.0,2.0,61,-99.99,,,-99.99,,2013-02-13 23:32:00,
2013-02-13 18:42:00,32.0,21.0,-100.00,SSE,160,2.0,2.0,62,-99.99,,,-99.99,,2013-02-13 23:42:00,
2013-02-13 18:52:00,32.0,21.0,-100.00,South,170,2.0,2.0,63,-99.99,,,-99.99,,2013-02-13 23:52:00,
2013-02-13 19:02:00,31.0,22.0,-100.00,South,185,2.0,2.0,68,-99.99,,,-99.99,,2013-02-14 00:02:00,
2013-02-13 19:11:00,31.0,22.0,-100.00,SSE,165,1.0,2.0,68,-99.99,,,-99.99,,2013-02-14 00:11:00,
2013-02-13 19:22:00,31.0,22.0,-100.00,SSE,150,2.0,2.0,69,-99.99,,,-99.99,,2013-02-14 00:22:00,
2013-02-13 19:42:00,31.0,22.0,-100.00,SW,225,1.0,1.0,69,-99.99,,,-99.99,,2013-02-14 00:42:00,
2013-02-13 19:52:00,31.0,22.0,-100.00,WNW,285,0.0,1.0,70,-99.99,,,-99.99,,2013-02-14 00:52:00,
2013-02-13 20:01:00,31.0,22.0,-100.00,WNW,295,1.0,2.0,69,-99.99,,,-99.99,,2013-02-14 01:01:00,
2013-02-13 20:11:00,31.0,21.0,-100.00,NNW,345,0.0,1.0,67,-99.99,,,-99.99,,2013-02-14 01:11:00,
2013-02-13 20:21:00,31.0,22.0,-100.00,ENE,60,1.0,2.0,68,-99.99,,,-99.99,,2013-02-14 01:21:00,
2013-02-13 20:32:00,31.0,22.0,-100.00,ENE,60,1.0,2.0,68,-99.99,,,-99.99,,2013-02-14 01:32:00,
2013-02-13 20:41:00,31.0,23.0,-100.00,NNW,340,1.0,3.0,70,-99.99,,,-99.99,,2013-02-14 01:41:00,
2013-02-13 20:50:00,31.0,22.0,-100.00,SSE,150,1.0,2.0,71,-99.99,,,-99.99,,2013-02-14 01:50:00,
2013-02-13 20:52:00,31.0,23.0,-100.00,SSW,195,2.0,2.0,71,-99.99,,,-99.99,,2013-02-14 01:52:00,
2013-02-13 21:02:00,31.0,22.0,-100.00,South,185,1.0,2.0,71,-99.99,,,-99.99,,2013-02-14 02:02:00,
2013-02-13 21:11:00,31.0,23.0,-100.00,ENE,70,2.0,2.0,71,-99.99,,,-99.99,,2013-02-14 02:11:00,
2013-02-13 21:21:00,31.0,22.0,-100.00,SSE,165,1.0,2.0,71,-99.99,,,-99.99,,2013-02-14 02:21:00,
2013-02-13 21:32:00,31.0,22.0,-100.00,SSE,150,1.0,2.0,71,-99.99,,,-99.99,,2013-02-14 02:32:00,
2013-02-13 21:42:00,31.0,22.0,-100.00,SSE,150,1.0,2.0,71,-99.99,,,-99.99,,2013-02-14 02:42:00,
2013-02-13 22:02:00,31.0,23.0,-100.00,South,180,0.0,1.0,72,-99.99,,,-99.99,,2013-02-14 03:02:00,
2013-02-13 22:12:00,31.0,22.0,-100.00,East,80,0.0,1.0,71,-99.99,,,-99.99,,2013-02-14 03:12:00,
2013-02-13 22:22:00,31.0,23.0,-100.00,NW,310,1.0,2.0,70,-99.99,,,-99.99,,2013-02-14 03:22:00,
2013-02-13 22:32:00,31.0,23.0,-100.00,NNE,20,1.0,2.0,71,-99.99,,,-99.99,,2013-02-14 03:32:00,
2013-02-13 22:42:00,31.0,23.0,-100.00,ESE,110,1.0,2.0,71,-99.99,,,-99.99,,2013-02-14 03:42:00,
2013-02-13 22:52:00,31.0,23.0,-100.00,ENE,65,1.0,2.0,71,-99.99,,,-99.99,,2013-02-14 03:52:00,
2013-02-13 23:01:00,31.0,23.0,-100.00,ENE,65,1.0,2.0,71,-99.99,,,-99.99,,2013-02-14 04:01:00,